Time,TemperatureF,DewpointF,PressureIn,WindDirection,WindDirectionDegrees,WindSpeedMPH,WindSpeedGustMPH,Humidity,HourlyPrecipIn,Conditions,Clouds,dailyrainin,SolarRadiationWatts/m^2,SoftwareType,DateUTC
2013-02-13 00:02:00,52.6,51.5,29.83,WNW,282,2.0,9.0,96,0.00,,,0.00,0,Wunderground v.1.15,2013-02-13 06:02:00,
2013-02-13 00:07:00,52.5,51.4,29.83,WNW,292,2.0,9.0,96,0.00,,,0.00,0,Wunderground v.1.15,2013-02-13 06:07:00,
2013-02-13 00:13:00,52.4,51.0,29.84,WNW,303,2.0,9.0,95,0.00,,,0.00,0,Wunderground v.1.15,2013-02-13 06:13:00,
2013-02-13 00:19:00,52.2,50.8,29.84,WNW,290,4.0,17.0,95,0.00,,,0.00,0,Wunderground v.1.15,2013-02-13 06:19:00,
2013-02-13 00:24:00,52.1,50.7,29.84,NW,308,3.0,9.0,95,0.00,,,0.00,0,Wunderground v.1.15,2013-02-13 06:24:00,
2013-02-13 00:29:00,51.8,50.1,29.84,NW,312,3.0,9.0,94,0.00,,,0.00,0,Wunderground v.1.15,2013-02-13 06:29:00,
2013-02-13 00:34:00,51.5,49.8,29.84,West,266,4.0,9.0,94,0.00,,,0.00,0,Wunderground v.1.15,2013-02-13 06:34:00,
2013-02-13 00:39:00,51.4,49.4,29.85,WNW,302,4.0,9.0,93,0.00,,,0.00,0,Wunderground v.1.15,2013-02-13 06:39:00,
2013-02-13 00:45:00,51.1,49.1,29.85,West,262,3.0,9.0,93,0.00,,,0.00,0,Wunderground v.1.15,2013-02-13 06:45:00,
2013-02-13 00:50:00,50.9,49.2,29.85,WNW,294,2.0,2.0,94,0.00,,,0.00,0,Wunderground v.1.15,2013-02-13 06:50:00,
2013-02-13 00:55:00,50.8,49.1,29.84,WNW,284,2.0,9.0,94,0.00,,,0.00,0,Wunderground v.1.15,2013-02-13 06:55:00,
2013-02-13 01:01:00,50.6,48.9,29.84,WNW,284,1.0,1.0,94,0.00,,,0.00,0,Wunderground v.1.15,2013-02-13 07:01:00,
2013-02-13 01:07:00,50.5,48.8,29.84,WNW,284,0.0,4.0,94,0.00,,,0.00,0,Wunderground v.1.15,2013-02-13 07:07:00,
2013-02-13 01:12:00,50.4,49.0,29.83,WNW,284,0.0,2.0,95,0.00,,,0.00,0,Wunderground v.1.15,2013-02-13 07:12:00,
2013-02-13 01:17:00,50.2,48.8,29.83,WNW,288,0.0,3.0,95,0.00,,,0.00,0,Wunderground v.1.15,2013-02-13 07:17:00,
2013-02-13 01:23:00,50.1,48.7,29.83,WNW,295,1.0,2.0,95,0.00,,,0.00,0,Wunderground v.1.15,2013-02-13 07:23:00,
2013-02-13 01:29:00,50.1,48.7,29.84,West,281,1.0,4.0,95,0.00,,,0.00,0,Wunderground v.1.15,2013-02-13 07:29:00,
2013-02-13 01:34:00,50.1,48.7,29.84,West,276,2.0,6.0,95,0.00,,,0.00,0,Wunderground v.1.15,2013-02-13 07:34:00,
2013-02-13 01:39:00,50.0,48.6,29.84,NW,306,2.0,7.0,95,0.00,,,0.00,0,Wunderground v.1.15,2013-02-13 07:39:00,
2013-02-13 01:45:00,50.0,48.6,29.85,West,279,2.0,6.0,95,0.00,,,0.00,0,Wunderground v.1.15,2013-02-13 07:45:00,
2013-02-13 01:51:00,50.0,48.6,29.85,WSW,254,1.0,1.0,95,0.00,,,0.00,0,Wunderground v.1.15,2013-02-13 07:51:00,
2013-02-13 01:56:00,50.0,48.6,29.85,West,271,2.0,5.0,95,0.00,,,0.00,0,Wunderground v.1.15,2013-02-13 07:56:00,
2013-02-13 02:01:00,50.0,48.6,29.86,NW,319,2.0,2.0,95,0.00,,,0.00,0,Wunderground v.1.15,2013-02-13 08:01:00,
2013-02-13 02:07:00,49.9,48.5,29.87,West,271,1.0,2.0,95,0.00,,,0.00,0,Wunderground v.1.15,2013-02-13 08:07:00,
2013-02-13 02:12:00,49.9,48.5,29.87,West,270,2.0,6.0,95,0.00,,,0.00,0,Wunderground v.1.15,2013-02-13 08:12:00,
2013-02-13 02:17:00,49.9,48.5,29.88,SW,230,3.0,6.0,95,0.00,,,0.00,0,Wunderground v.1.15,2013-02-13 08:17:00,
2013-02-13 02:22:00,49.8,48.4,29.88,WSW,258,1.0,4.0,95,0.00,,,0.00,0,Wunderground v.1.15,2013-02-13 08:22:00,
2013-02-13 02:28:00,49.8,48.1,29.87,WNW,284,1.0,4.0,94,0.00,,,0.00,0,Wunderground v.1.15,2013-02-13 08:28:00,
2013-02-13 02:33:00,49.7,48.0,29.87,West,272,1.0,2.0,94,0.00,,,0.00,0,Wunderground v.1.15,2013-02-13 08:33:00,
2013-02-13 02:38:00,49.6,47.9,29.88,West,276,1.0,2.0,94,0.00,,,0.00,0,Wunderground v.1.15,2013-02-13 08:38:00,
2013-02-13 02:43:00,49.6,48.2,29.88,West,264,1.0,1.0,95,0.00,,,0.00,0,Wunderground v.1.15,2013-02-13 08:43:00,
2013-02-13 02:48:00,49.6,48.2,29.87,West,264,0.0,1.0,95,0.00,,,0.00,0,Wunderground v.1.15,2013-02-13 08:48:00,
2013-02-13 02:54:00,49.4,48.0,29.87,West,262,0.0,0.0,95,0.00,,,0.00,0,Wunderground v.1.15,2013-02-13 08:54:00,
2013-02-13 02:59:00,49.4,48.0,29.88,West,262,0.0,0.0,95,0.00,,,0.00,0,Wunderground v.1.15,2013-02-13 08:59:00,
2013-02-13 03:04:00,49.3,47.9,29.89,West,269,0.0,0.0,95,0.00,,,0.00,0,Wunderground v.1.15,2013-02-13 09:04:00,
2013-02-13 03:09:00,49.2,47.8,29.88,WSW,239,1.0,3.0,95,0.00,,,0.00,0,Wunderground v.1.15,2013-02-13 09:09:00,
2013-02-13 03:15:00,49.2,47.8,29.89,WSW,245,1.0,4.0,95,0.00,,,0.00,0,Wunderground v.1.15,2013-02-13 09:15:00,
2013-02-13 03:20:00,49.1,47.7,29.88,West,265,1.0,4.0,95,0.00,,,0.00,0,Wunderground v.1.15,2013-02-13 09:20:00,
2013-02-13 03:25:00,49.1,47.7,29.89,SW,219,2.0,9.0,95,0.00,,,0.00,0,Wunderground v.1.15,2013-02-13 09:25:00,
2013-02-13 03:30:00,49.0,47.6,29.89,WSW,258,2.0,2.0,95,0.00,,,0.00,0,Wunderground v.1.15,2013-02-13 09:30:00,
2013-02-13 03:35:00,49.0,47.6,29.88,West,272,1.0,8.0,95,0.00,,,0.00,0,Wunderground v.1.15,2013-02-13 09:35:00,
2013-02-13 03:40:00,48.9,47.5,29.89,WNW,284,1.0,1.0,95,0.00,,,0.00,0,Wunderground v.1.15,2013-02-13 09:40:00,
2013-02-13 03:46:00,48.9,47.5,29.89,West,269,2.0,5.0,95,0.00,,,0.00,0,Wunderground v.1.15,2013-02-13 09:46:00,
2013-02-13 03:51:00,48.8,47.4,29.88,WNW,283,1.0,1.0,95,0.00,,,0.00,0,Wunderground v.1.15,2013-02-13 09:51:00,
2013-02-13 03:57:00,48.8,47.4,29.87,West,273,1.0,5.0,95,0.00,,,0.00,0,Wunderground v.1.15,2013-02-13 09:57:00,
2013-02-13 04:02:00,48.8,47.4,29.87,West,275,1.0,5.0,95,0.00,,,0.00,0,Wunderground v.1.15,2013-02-13 10:02:00,
2013-02-13 04:07:00,48.8,47.4,29.89,West,268,1.0,5.0,95,0.00,,,0.00,0,Wunderground v.1.15,2013-02-13 10:07:00,
2013-02-13 04:12:00,48.8,47.4,29.87,WNW,285,1.0,6.0,95,0.00,,,0.00,0,Wunderground v.1.15,2013-02-13 10:12:00,
2013-02-13 04:18:00,48.7,47.3,29.87,WNW,285,2.0,7.0,95,0.00,,,0.00,0,Wunderground v.1.15,2013-02-13 10:18:00,
2013-02-13 04:23:00,48.7,47.3,29.87,West,274,3.0,4.0,95,0.00,,,0.00,0,Wunderground v.1.15,2013-02-13 10:23:00,
2013-02-13 04:29:00,48.7,47.1,29.88,West,275,2.0,6.0,94,0.00,,,0.00,0,Wunderground v.1.15,2013-02-13 10:29:00,
2013-02-13 04:34:00,48.7,47.3,29.88,West,266,1.0,2.0,95,0.00,,,0.00,0,Wunderground v.1.15,2013-02-13 10:34:00,
2013-02-13 04:39:00,48.7,47.1,29.86,WNW,285,1.0,9.0,94,0.00,,,0.00,0,Wunderground v.1.15,2013-02-13 10:39:00,
2013-02-13 04:44:00,48.7,47.1,29.87,West,279,1.0,4.0,94,0.00,,,0.00,0,Wunderground v.1.15,2013-02-13 10:44:00,
2013-02-13 04:50:00,48.7,47.1,29.88,WNW,295,2.0,2.0,94,0.00,,,0.00,0,Wunderground v.1.15,2013-02-13 10:50:00,
2013-02-13 04:55:00,48.7,47.1,29.86,West,264,1.0,3.0,94,0.00,,,0.00,0,Wunderground v.1.15,2013-02-13 10:55:00,
2013-02-13 05:00:00,48.7,47.1,29.88,WNW,302,2.0,2.0,94,0.00,,,0.00,0,Wunderground v.1.15,2013-02-13 11:00:00,
2013-02-13 05:05:00,48.7,47.1,29.87,NW,306,2.0,8.0,94,0.00,,,0.00,0,Wunderground v.1.15,2013-02-13 11:05:00,
2013-02-13 05:11:00,48.7,46.8,29.86,WNW,288,2.0,8.0,93,0.00,,,0.00,0,Wunderground v.1.15,2013-02-13 11:11:00,
2013-02-13 05:16:00,48.7,46.8,29.87,WNW,300,2.0,9.0,93,0.00,,,0.00,0,Wunderground v.1.15,2013-02-13 11:16:00,
2013-02-13 05:21:00,48.7,46.8,29.89,West,269,2.0,3.0,93,0.00,,,0.00,0,Wunderground v.1.15,2013-02-13 11:21:00,
2013-02-13 05:26:00,48.7,46.8,29.88,SW,235,3.0,5.0,93,0.00,,,0.00,0,Wunderground v.1.15,2013-02-13 11:26:00,
2013-02-13 05:32:00,48.8,46.9,29.89,WNW,284,2.0,2.0,93,0.00,,,0.00,0,Wunderground v.1.15,2013-02-13 11:32:00,
2013-02-13 05:37:00,48.7,46.8,29.89,WNW,283,1.0,2.0,93,0.00,,,0.00,0,Wunderground v.1.15,2013-02-13 11:37:00,
2013-02-13 05:42:00,48.8,46.9,29.90,NW,318,2.0,4.0,93,0.00,,,0.00,0,Wunderground v.1.15,2013-02-13 11:42:00,
2013-02-13 05:47:00,48.7,46.8,29.89,WNW,303,3.0,5.0,93,0.00,,,0.00,0,Wunderground v.1.15,2013-02-13 11:47:00,
2013-02-13 05:52:00,48.8,46.6,29.89,WSW,258,3.0,3.0,92,0.00,,,0.00,0,Wunderground v.1.15,2013-02-13 11:52:00,
2013-02-13 05:58:00,48.8,46.6,29.91,WNW,293,3.0,8.0,92,0.00,,,0.00,0,Wunderground v.1.15,2013-02-13 11:58:00,
2013-02-13 06:03:00,48.7,46.5,29.91,West,265,3.0,6.0,92,0.00,,,0.00,0,Wunderground v.1.15,2013-02-13 12:03:00,
2013-02-13 06:08:00,48.7,46.5,29.90,West,260,3.0,6.0,92,0.00,,,0.00,0,Wunderground v.1.15,2013-02-13 12:08:00,
2013-02-13 06:14:00,48.7,46.5,29.90,WNW,287,1.0,3.0,92,0.00,,,0.00,0,Wunderground v.1.15,2013-02-13 12:14:00,
2013-02-13 06:19:00,48.6,46.4,29.89,WNW,285,1.0,3.0,92,0.00,,,0.00,0,Wunderground v.1.15,2013-02-13 12:19:00,
2013-02-13 06:25:00,48.6,46.4,29.91,WNW,285,1.0,4.0,92,0.00,,,0.00,0,Wunderground v.1.15,2013-02-13 12:25:00,
2013-02-13 06:30:00,48.6,46.4,29.90,West,273,1.0,1.0,92,0.00,,,0.00,0,Wunderground v.1.15,2013-02-13 12:30:00,
2013-02-13 06:36:00,48.6,46.4,29.89,WNW,287,1.0,4.0,92,0.00,,,0.00,0,Wunderground v.1.15,2013-02-13 12:36:00,
2013-02-13 06:41:00,48.6,46.4,29.90,WSW,242,0.0,1.0,92,0.00,,,0.00,0,Wunderground v.1.15,2013-02-13 12:41:00,
2013-02-13 06:46:00,48.6,46.4,29.90,West,277,0.0,1.0,92,0.00,,,0.00,0,Wunderground v.1.15,2013-02-13 12:46:00,
2013-02-13 06:52:00,48.5,46.3,29.90,WSW,258,0.0,0.0,92,0.00,,,0.00,0,Wunderground v.1.15,2013-02-13 12:52:00,
2013-02-13 06:58:00,48.5,46.3,29.89,WSW,244,0.0,1.0,92,0.00,,,0.00,0,Wunderground v.1.15,2013-02-13 12:58:00,
2013-02-13 07:03:00,48.4,46.2,29.91,West,271,0.0,1.0,92,0.00,,,0.00,0,Wunderground v.1.15,2013-02-13 13:03:00,
2013-02-13 07:08:00,48.3,46.4,29.91,WSW,248,1.0,4.0,93,0.00,,,0.00,0,Wunderground v.1.15,2013-02-13 13:08:00,
2013-02-13 07:13:00,48.2,46.3,29.91,WNW,289,1.0,1.0,93,0.00,,,0.00,0,Wunderground v.1.15,2013-02-13 13:13:00,
2013-02-13 07:18:00,48.2,47.7,29.93,WSW,248,1.0,3.0,98,0.00,,,0.00,0,Wunderground v.1.15,2013-02-13 13:18:00,
2013-02-13 07:24:00,48.2,46.3,29.93,WSW,246,2.0,7.0,93,0.00,,,0.00,0,Wunderground v.1.15,2013-02-13 13:24:00,
2013-02-13 07:29:00,48.1,46.5,29.94,WNW,301,2.0,7.0,94,0.00,,,0.00,0,Wunderground v.1.15,2013-02-13 13:29:00,
2013-02-13 07:34:00,48.1,46.5,29.94,NNW,337,2.0,5.0,94,0.00,,,0.00,0,Wunderground v.1.15,2013-02-13 13:34:00,
2013-02-13 07:40:00,47.9,46.3,29.95,NNW,337,1.0,1.0,94,0.00,,,0.00,5,Wunderground v.1.15,2013-02-13 13:40:00,
2013-02-13 07:45:00,47.8,46.4,29.95,NNW,348,0.0,1.0,95,0.00,,,0.00,0,Wunderground v.1.15,2013-02-13 13:45:00,
2013-02-13 07:50:00,47.6,46.2,29.94,NW,306,2.0,3.0,95,0.00,,,0.00,14,Wunderground v.1.15,2013-02-13 13:50:00,
2013-02-13 07:55:00,47.6,46.0,29.95,West,274,2.0,5.0,94,0.00,,,0.00,11,Wunderground v.1.15,2013-02-13 13:55:00,
2013-02-13 08:00:00,47.5,46.1,29.96,NNW,345,2.0,2.0,95,0.00,,,0.00,7,Wunderground v.1.15,2013-02-13 14:00:00,
2013-02-13 08:05:00,47.2,45.3,29.95,NW,320,2.0,5.0,93,0.00,,,0.00,9,Wunderground v.1.15,2013-02-13 14:05:00,
2013-02-13 08:11:00,46.6,44.7,29.95,NW,321,4.0,4.0,93,0.00,,,0.00,9,Wunderground v.1.15,2013-02-13 14:11:00,
2013-02-13 08:16:00,46.2,44.3,29.97,NNW,327,4.0,7.0,93,0.00,,,0.00,9,Wunderground v.1.15,2013-02-13 14:16:00,
2013-02-13 08:21:00,46.0,44.1,29.98,NNW,329,5.0,7.0,93,0.00,,,0.00,11,Wunderground v.1.15,2013-02-13 14:21:00,
2013-02-13 08:26:00,45.8,43.6,29.98,NW,304,4.0,13.0,92,0.00,,,0.00,9,Wunderground v.1.15,2013-02-13 14:26:00,
2013-02-13 08:32:00,45.7,43.8,29.97,NNW,331,4.0,4.0,93,0.00,,,0.00,12,Wunderground v.1.15,2013-02-13 14:32:00,
2013-02-13 08:37:00,45.6,43.7,29.98,NNW,344,3.0,6.0,93,0.00,,,0.00,12,Wunderground v.1.15,2013-02-13 14:37:00,
2013-02-13 08:42:00,45.5,43.6,29.98,West,276,3.0,8.0,93,0.00,,,0.00,16,Wunderground v.1.15,2013-02-13 14:42:00,
2013-02-13 08:48:00,45.5,43.6,29.97,NNW,333,4.0,8.0,93,0.00,,,0.00,25,Wunderground v.1.15,2013-02-13 14:48:00,
2013-02-13 08:53:00,45.5,43.3,29.98,WNW,300,4.0,5.0,92,0.00,,,0.00,30,Wunderground v.1.15,2013-02-13 14:53:00,
2013-02-13 08:58:00,45.6,43.4,29.98,North,350,4.0,5.0,92,0.00,,,0.00,30,Wunderground v.1.15,2013-02-13 14:58:00,
2013-02-13 09:03:00,45.6,43.4,29.98,WNW,293,3.0,4.0,92,0.00,,,0.00,40,Wunderground v.1.15,2013-02-13 15:03:00,
2013-02-13 09:09:00,45.7,43.2,29.99,NW,321,3.0,5.0,91,0.00,,,0.00,53,Wunderground v.1.15,2013-02-13 15:09:00,
2013-02-13 09:15:00,45.8,43.0,30.00,West,269,4.0,6.0,90,0.00,,,0.00,53,Wunderground v.1.15,2013-02-13 15:15:00,
2013-02-13 09:20:00,45.8,43.0,30.00,NW,316,3.0,3.0,90,0.00,,,0.00,51,Wunderground v.1.15,2013-02-13 15:20:00,
2013-02-13 09:25:00,45.9,43.1,29.98,NW,316,2.0,3.0,90,0.00,,,0.00,54,Wunderground v.1.15,2013-02-13 15:25:00,
2013-02-13 09:31:00,45.9,43.1,29.98,West,280,2.0,2.0,90,0.00,,,0.00,53,Wunderground v.1.15,2013-02-13 15:31:00,
2013-02-13 09:37:00,45.9,42.8,30.00,NW,322,2.0,7.0,89,0.00,,,0.00,60,Wunderground v.1.15,2013-02-13 15:37:00,
2013-02-13 09:42:00,46.0,42.9,29.99,WNW,301,2.0,2.0,89,0.00,,,0.00,84,Wunderground v.1.15,2013-02-13 15:42:00,
2013-02-13 09:47:00,46.0,42.9,29.98,NW,314,0.0,2.0,89,0.00,,,0.00,91,Wunderground v.1.15,2013-02-13 15:47:00,
2013-02-13 09:53:00,46.1,42.7,29.99,West,271,1.0,2.0,88,0.00,,,0.00,125,Wunderground v.1.15,2013-02-13 15:53:00,
2013-02-13 09:58:00,46.1,42.1,29.98,NW,308,2.0,6.0,86,0.00,,,0.00,156,Wunderground v.1.15,2013-02-13 15:58:00,
2013-02-13 10:03:00,46.3,42.3,29.98,NNW,329,3.0,4.0,86,0.00,,,0.00,193,Wunderground v.1.15,2013-02-13 16:03:00,
2013-02-13 10:09:00,46.4,42.1,29.97,WNW,295,2.0,8.0,85,0.00,,,0.00,151,Wunderground v.1.15,2013-02-13 16:09:00,
2013-02-13 10:14:00,46.5,42.2,29.98,West,280,2.0,6.0,85,0.00,,,0.00,128,Wunderground v.1.15,2013-02-13 16:14:00,
2013-02-13 10:19:00,46.5,41.9,29.98,NW,311,2.0,8.0,84,0.00,,,0.00,149,Wunderground v.1.15,2013-02-13 16:19:00,
2013-02-13 10:24:00,46.6,42.0,29.97,WNW,303,2.0,7.0,84,0.00,,,0.00,105,Wunderground v.1.15,2013-02-13 16:24:00,
2013-02-13 10:29:00,46.5,41.6,29.97,NNW,333,3.0,9.0,83,0.00,,,0.00,100,Wunderground v.1.15,2013-02-13 16:29:00,
2013-02-13 10:35:00,46.4,41.5,29.95,NNW,348,5.0,8.0,83,0.00,,,0.00,192,Wunderground v.1.15,2013-02-13 16:35:00,
2013-02-13 10:40:00,46.5,41.6,29.95,North,10,3.0,4.0,83,0.00,,,0.00,202,Wunderground v.1.15,2013-02-13 16:40:00,
2013-02-13 10:45:00,46.7,41.2,29.96,NW,324,3.0,7.0,81,0.00,,,0.00,195,Wunderground v.1.15,2013-02-13 16:45:00,
2013-02-13 10:50:00,46.8,41.3,29.96,NW,326,4.0,4.0,81,0.00,,,0.00,221,Wunderground v.1.15,2013-02-13 16:50:00,
2013-02-13 10:56:00,47.0,41.1,29.97,NNW,346,4.0,9.0,80,0.00,,,0.00,229,Wunderground v.1.15,2013-02-13 16:56:00,
2013-02-13 11:01:00,47.1,41.2,29.97,NNW,339,5.0,8.0,80,0.00,,,0.00,186,Wunderground v.1.15,2013-02-13 17:01:00,
2013-02-13 11:06:00,47.1,41.2,29.98,NNW,346,5.0,9.0,80,0.00,,,0.00,251,Wunderground v.1.15,2013-02-13 17:06:00,
2013-02-13 11:11:00,47.2,41.3,29.97,NW,325,5.0,5.0,80,0.00,,,0.00,251,Wunderground v.1.15,2013-02-13 17:11:00,
2013-02-13 11:16:00,47.3,41.1,29.97,NNW,329,4.0,11.0,79,0.00,,,0.00,221,Wunderground v.1.15,2013-02-13 17:16:00,
2013-02-13 11:22:00,47.4,41.5,29.96,WNW,282,4.0,6.0,80,0.00,,,0.00,264,Wunderground v.1.15,2013-02-13 17:22:00,
2013-02-13 11:27:00,47.5,41.3,29.98,West,273,4.0,12.0,79,0.00,,,0.00,190,Wunderground v.1.15,2013-02-13 17:27:00,
2013-02-13 11:32:00,47.5,41.0,29.98,NNW,339,4.0,8.0,78,0.00,,,0.00,227,Wunderground v.1.15,2013-02-13 17:32:00,
2013-02-13 11:38:00,47.5,41.0,29.98,North,350,4.0,8.0,78,0.00,,,0.00,202,Wunderground v.1.15,2013-02-13 17:38:00,
2013-02-13 11:44:00,47.7,41.5,29.98,NNW,341,3.0,5.0,79,0.00,,,0.00,206,Wunderground v.1.15,2013-02-13 17:44:00,
2013-02-13 11:49:00,47.7,41.5,29.98,NNW,331,2.0,7.0,79,0.00,,,0.00,244,Wunderground v.1.15,2013-02-13 17:49:00,
2013-02-13 11:54:00,47.8,41.6,29.97,North,352,2.0,8.0,79,0.00,,,0.00,251,Wunderground v.1.15,2013-02-13 17:54:00,
2013-02-13 12:00:00,47.9,41.7,29.98,NW,324,2.0,2.0,79,0.00,,,0.00,339,Wunderground v.1.15,2013-02-13 18:00:00,
2013-02-13 12:06:00,48.2,42.0,29.97,NNW,329,2.0,3.0,79,0.00,,,0.00,290,Wunderground v.1.15,2013-02-13 18:06:00,
2013-02-13 12:11:00,48.5,42.0,29.98,NNW,339,2.0,2.0,78,0.00,,,0.00,251,Wunderground v.1.15,2013-02-13 18:11:00,
2013-02-13 12:16:00,48.7,41.8,29.98,NW,313,2.0,5.0,77,0.00,,,0.00,519,Wunderground v.1.15,2013-02-13 18:16:00,
2013-02-13 12:22:00,48.8,41.6,29.98,NW,305,4.0,11.0,76,0.00,,,0.01,185,Wunderground v.1.15,2013-02-13 18:22:00,
2013-02-13 12:28:00,48.6,41.4,29.97,WNW,302,5.0,11.0,76,0.00,,,0.01,316,Wunderground v.1.15,2013-02-13 18:28:00,
2013-02-13 12:33:00,48.6,41.0,29.98,NW,312,4.0,9.0,75,0.00,,,0.01,188,Wunderground v.1.15,2013-02-13 18:33:00,
2013-02-13 12:38:00,48.7,41.1,29.98,North,360,3.0,9.0,75,0.00,,,0.01,144,Wunderground v.1.15,2013-02-13 18:38:00,
2013-02-13 12:43:00,48.8,41.6,29.97,North,352,4.0,10.0,76,0.00,,,0.01,169,Wunderground v.1.15,2013-02-13 18:43:00,
2013-02-13 12:48:00,48.9,41.3,29.96,NNW,343,3.0,10.0,75,0.00,,,0.01,288,Wunderground v.1.15,2013-02-13 18:48:00,
2013-02-13 12:54:00,49.0,41.1,29.95,NW,325,3.0,9.0,74,0.00,,,0.01,323,Wunderground v.1.15,2013-02-13 18:54:00,
2013-02-13 13:00:00,49.2,41.3,29.96,NW,315,4.0,6.0,74,0.00,,,0.01,278,Wunderground v.1.15,2013-02-13 19:00:00,
2013-02-13 13:05:00,49.2,41.3,29.96,NNW,335,5.0,8.0,74,0.00,,,0.01,278,Wunderground v.1.15,2013-02-13 19:05:00,
2013-02-13 13:10:00,49.1,40.8,29.95,WNW,298,6.0,6.0,73,0.00,,,0.01,306,Wunderground v.1.15,2013-02-13 19:10:00,
2013-02-13 13:15:00,49.3,41.4,29.95,NNW,333,5.0,6.0,74,0.00,,,0.01,364,Wunderground v.1.15,2013-02-13 19:15:00,
2013-02-13 13:21:00,49.8,41.5,29.96,NW,325,4.0,4.0,73,0.00,,,0.01,385,Wunderground v.1.15,2013-02-13 19:21:00,
2013-02-13 13:26:00,49.7,41.4,29.96,NE,51,5.0,8.0,73,0.00,,,0.01,251,Wunderground v.1.15,2013-02-13 19:26:00,
2013-02-13 13:31:00,49.5,41.2,29.96,North,358,5.0,5.0,73,0.00,,,0.01,185,Wunderground v.1.15,2013-02-13 19:31:00,
2013-02-13 13:36:00,49.2,41.3,29.97,NW,313,4.0,6.0,74,0.00,,,0.01,218,Wunderground v.1.15,2013-02-13 19:36:00,
2013-02-13 13:42:00,49.0,41.4,29.97,NW,304,3.0,3.0,75,0.00,,,0.01,197,Wunderground v.1.15,2013-02-13 19:42:00,
2013-02-13 13:48:00,48.9,41.3,29.97,NW,312,3.0,7.0,75,0.00,,,0.01,325,Wunderground v.1.15,2013-02-13 19:48:00,
2013-02-13 13:53:00,49.0,40.7,29.97,NW,314,3.0,5.0,73,0.00,,,0.01,186,Wunderground v.1.15,2013-02-13 19:53:00,
2013-02-13 13:58:00,49.0,41.1,29.96,NW,325,4.0,9.0,74,0.00,,,0.01,172,Wunderground v.1.15,2013-02-13 19:58:00,
2013-02-13 14:04:00,49.2,41.6,29.96,NW,312,4.0,9.0,75,0.00,,,0.01,253,Wunderground v.1.15,2013-02-13 20:04:00,
2013-02-13 14:09:00,49.2,41.3,29.96,NW,305,2.0,9.0,74,0.00,,,0.01,221,Wunderground v.1.15,2013-02-13 20:09:00,
2013-02-13 14:14:00,49.3,41.0,29.96,NW,312,2.0,3.0,73,0.00,,,0.01,236,Wunderground v.1.15,2013-02-13 20:14:00,
2013-02-13 14:19:00,49.6,40.9,29.96,WNW,287,2.0,10.0,72,0.00,,,0.01,297,Wunderground v.1.15,2013-02-13 20:19:00,
2013-02-13 14:24:00,49.7,41.0,29.96,NW,325,2.0,4.0,72,0.00,,,0.01,295,Wunderground v.1.15,2013-02-13 20:24:00,
2013-02-13 14:29:00,50.0,41.3,29.96,North,356,1.0,4.0,72,0.00,,,0.01,803,Wunderground v.1.15,2013-02-13 20:29:00,
2013-02-13 14:34:00,50.3,41.3,29.96,North,5,2.0,8.0,71,0.00,,,0.01,244,Wunderground v.1.15,2013-02-13 20:34:00,
2013-02-13 14:39:00,50.0,41.0,29.96,WNW,297,3.0,8.0,71,0.00,,,0.01,223,Wunderground v.1.15,2013-02-13 20:39:00,
2013-02-13 14:44:00,50.0,41.0,29.96,NW,312,2.0,8.0,71,0.00,,,0.01,174,Wunderground v.1.15,2013-02-13 20:44:00,
2013-02-13 14:49:00,49.9,40.9,29.96,West,281,2.0,8.0,71,0.00,,,0.01,185,Wunderground v.1.15,2013-02-13 20:49:00,
2013-02-13 14:54:00,49.9,41.2,29.96,NW,314,2.0,3.0,72,0.00,,,0.01,244,Wunderground v.1.15,2013-02-13 20:54:00,
2013-02-13 15:00:00,49.9,40.9,29.96,North,5,2.0,7.0,71,0.00,,,0.01,163,Wunderground v.1.15,2013-02-13 21:00:00,
2013-02-13 15:05:00,49.8,40.8,29.96,NNW,340,3.0,7.0,71,0.00,,,0.01,137,Wunderground v.1.15,2013-02-13 21:05:00,
2013-02-13 15:10:00,49.7,40.7,29.96,NNW,336,3.0,3.0,71,0.00,,,0.01,163,Wunderground v.1.15,2013-02-13 21:10:00,
2013-02-13 15:15:00,49.8,40.8,29.96,West,274,1.0,5.0,71,0.00,,,0.01,366,Wunderground v.1.15,2013-02-13 21:15:00,
2013-02-13 15:20:00,50.0,41.0,29.96,NW,319,2.0,2.0,71,0.00,,,0.01,234,Wunderground v.1.15,2013-02-13 21:20:00,
2013-02-13 15:25:00,50.2,41.5,29.97,NW,319,2.0,5.0,72,0.00,,,0.01,163,Wunderground v.1.15,2013-02-13 21:25:00,
2013-02-13 15:31:00,50.3,41.6,29.97,NNW,343,1.0,4.0,72,0.00,,,0.01,132,Wunderground v.1.15,2013-02-13 21:31:00,
2013-02-13 15:37:00,50.1,41.1,29.97,NNW,331,2.0,5.0,71,0.00,,,0.01,130,Wunderground v.1.15,2013-02-13 21:37:00,
2013-02-13 15:42:00,49.9,40.9,29.97,NNW,339,2.0,3.0,71,0.00,,,0.01,156,Wunderground v.1.15,2013-02-13 21:42:00,
2013-02-13 15:47:00,49.8,40.8,29.97,North,350,2.0,3.0,71,0.00,,,0.01,139,Wunderground v.1.15,2013-02-13 21:47:00,
2013-02-13 15:53:00,49.9,40.5,29.97,NW,309,2.0,7.0,70,0.00,,,0.01,125,Wunderground v.1.15,2013-02-13 21:53:00,
2013-02-13 15:58:00,49.8,40.8,29.97,NNW,327,1.0,7.0,71,0.00,,,0.01,125,Wunderground v.1.15,2013-02-13 21:58:00,
2013-02-13 16:04:00,49.9,40.9,29.97,NNW,340,1.0,4.0,71,0.00,,,0.01,111,Wunderground v.1.15,2013-02-13 22:04:00,
2013-02-13 16:09:00,49.8,40.4,29.98,NNW,343,3.0,8.0,70,0.00,,,0.01,102,Wunderground v.1.15,2013-02-13 22:09:00,
2013-02-13 16:14:00,49.7,40.3,29.97,NNW,345,2.0,8.0,70,0.00,,,0.01,105,Wunderground v.1.15,2013-02-13 22:14:00,
2013-02-13 16:19:00,49.7,40.7,29.97,NE,34,1.0,8.0,71,0.00,,,0.01,93,Wunderground v.1.15,2013-02-13 22:19:00,
2013-02-13 16:24:00,49.7,40.7,29.98,WNW,293,1.0,1.0,71,0.00,,,0.01,77,Wunderground v.1.15,2013-02-13 22:24:00,
2013-02-13 16:29:00,49.6,40.2,29.98,West,277,0.0,3.0,70,0.00,,,0.01,83,Wunderground v.1.15,2013-02-13 22:29:00,
2013-02-13 16:35:00,49.4,40.4,29.98,WNW,283,1.0,2.0,71,0.00,,,0.01,83,Wunderground v.1.15,2013-02-13 22:35:00,
2013-02-13 16:40:00,49.3,39.9,29.98,NNW,339,1.0,1.0,70,0.00,,,0.01,84,Wunderground v.1.15,2013-02-13 22:40:00,
2013-02-13 16:45:00,49.2,40.2,29.98,NNW,338,0.0,1.0,71,0.00,,,0.01,97,Wunderground v.1.15,2013-02-13 22:45:00,
2013-02-13 16:50:00,49.4,40.7,29.98,NNW,335,0.0,0.0,72,0.00,,,0.01,190,Wunderground v.1.15,2013-02-13 22:50:00,
2013-02-13 16:56:00,49.9,40.5,29.98,NNW,334,0.0,0.0,70,0.00,,,0.01,79,Wunderground v.1.15,2013-02-13 22:56:00,
2013-02-13 17:01:00,49.9,40.1,29.99,North,10,0.0,2.0,69,0.00,,,0.01,39,Wunderground v.1.15,2013-02-13 23:01:00,
2013-02-13 17:06:00,49.7,40.3,29.99,NNW,345,0.0,2.0,70,0.00,,,0.01,32,Wunderground v.1.15,2013-02-13 23:06:00,
2013-02-13 17:12:00,49.4,40.4,29.98,North,359,1.0,3.0,71,0.00,,,0.01,26,Wunderground v.1.15,2013-02-13 23:12:00,
2013-02-13 17:18:00,49.2,40.6,29.99,North,354,0.0,3.0,72,0.00,,,0.01,25,Wunderground v.1.15,2013-02-13 23:18:00,
2013-02-13 17:23:00,49.0,40.0,29.99,NNW,347,0.0,4.0,71,0.00,,,0.01,19,Wunderground v.1.15,2013-02-13 23:23:00,
2013-02-13 17:28:00,48.8,40.5,29.99,North,349,1.0,4.0,73,0.00,,,0.01,12,Wunderground v.1.15,2013-02-13 23:28:00,
2013-02-13 17:34:00,48.6,40.0,29.99,North,354,0.0,3.0,72,0.00,,,0.01,9,Wunderground v.1.15,2013-02-13 23:34:00,
2013-02-13 17:40:00,48.5,39.9,29.99,NNE,27,1.0,1.0,72,0.00,,,0.01,7,Wunderground v.1.15,2013-02-13 23:40:00,
2013-02-13 17:45:00,48.3,40.0,30.00,NNE,20,1.0,1.0,73,0.00,,,0.01,0,Wunderground v.1.15,2013-02-13 23:45:00,
2013-02-13 17:50:00,48.2,40.3,30.00,NNE,21,0.0,0.0,74,0.00,,,0.01,0,Wunderground v.1.15,2013-02-13 23:50:00,
2013-02-13 17:56:00,47.9,40.0,30.00,NNW,341,0.0,6.0,74,0.00,,,0.01,0,Wunderground v.1.15,2013-02-13 23:56:00,
2013-02-13 18:01:00,47.8,39.9,30.00,NNW,341,1.0,1.0,74,0.00,,,0.01,0,Wunderground v.1.15,2013-02-14 00:01:00,
2013-02-13 18:07:00,47.6,40.1,30.00,NNW,341,0.0,1.0,75,0.00,,,0.01,0,Wunderground v.1.15,2013-02-14 00:07:00,
2013-02-13 18:12:00,47.5,40.0,30.01,North,5,0.0,0.0,75,0.00,,,0.01,0,Wunderground v.1.15,2013-02-14 00:12:00,
2013-02-13 18:18:00,47.3,40.1,30.01,North,354,1.0,2.0,76,0.00,,,0.01,0,Wunderground v.1.15,2013-02-14 00:18:00,
2013-02-13 18:23:00,47.2,39.7,30.01,North,354,0.0,2.0,75,0.00,,,0.01,0,Wunderground v.1.15,2013-02-14 00:23:00,
2013-02-13 18:28:00,47.1,39.9,30.01,North,351,0.0,2.0,76,0.00,,,0.01,0,Wunderground v.1.15,2013-02-14 00:28:00,
2013-02-13 18:33:00,47.0,40.2,30.01,North,351,0.0,0.0,77,0.00,,,0.01,0,Wunderground v.1.15,2013-02-14 00:33:00,
2013-02-13 18:39:00,46.9,40.1,30.01,North,351,0.0,0.0,77,0.00,,,0.01,0,Wunderground v.1.15,2013-02-14 00:39:00,
2013-02-13 18:44:00,46.7,40.2,30.01,North,351,0.0,0.0,78,0.00,,,0.01,0,Wunderground v.1.15,2013-02-14 00:44:00,
2013-02-13 18:50:00,46.5,39.3,30.01,North,353,0.0,0.0,76,0.00,,,0.01,0,Wunderground v.1.15,2013-02-14 00:50:00,
2013-02-13 18:55:00,46.4,39.6,30.01,North,353,0.0,0.0,77,0.00,,,0.01,0,Wunderground v.1.15,2013-02-14 00:55:00,
2013-02-13 19:00:00,46.2,39.7,30.02,North,353,0.0,0.0,78,0.00,,,0.01,0,Wunderground v.1.15,2013-02-14 01:00:00,
2013-02-13 19:05:00,46.0,39.9,30.02,North,353,0.0,0.0,79,0.00,,,0.01,0,Wunderground v.1.15,2013-02-14 01:05:00,
2013-02-13 19:11:00,45.7,39.9,30.02,North,353,0.0,0.0,80,0.00,,,0.01,0,Wunderground v.1.15,2013-02-14 01:11:00,
2013-02-13 19:16:00,45.5,39.7,30.02,NNW,336,0.0,4.0,80,0.00,,,0.01,0,Wunderground v.1.15,2013-02-14 01:16:00,
2013-02-13 19:22:00,45.4,39.6,30.03,NNW,336,0.0,0.0,80,0.00,,,0.01,0,Wunderground v.1.15,2013-02-14 01:22:00,
2013-02-13 19:27:00,45.1,39.6,30.03,NNW,336,0.0,0.0,81,0.00,,,0.01,0,Wunderground v.1.15,2013-02-14 01:27:00,
2013-02-13 19:32:00,45.0,39.8,30.03,NNW,336,0.0,0.0,82,0.00,,,0.01,0,Wunderground v.1.15,2013-02-14 01:32:00,
2013-02-13 19:37:00,44.7,39.5,30.03,NNW,336,0.0,0.0,82,0.00,,,0.01,0,Wunderground v.1.15,2013-02-14 01:37:00,
2013-02-13 19:43:00,44.4,39.6,30.03,NNW,336,0.0,0.0,83,0.00,,,0.01,0,Wunderground v.1.15,2013-02-14 01:43:00,
2013-02-13 19:48:00,44.1,39.3,30.03,NNW,336,0.0,0.0,83,0.00,,,0.01,0,Wunderground v.1.15,2013-02-14 01:48:00,
2013-02-13 19:53:00,43.9,39.4,30.03,NNW,337,0.0,0.0,84,0.00,,,0.01,0,Wunderground v.1.15,2013-02-14 01:53:00,
2013-02-13 19:58:00,43.7,39.2,30.03,NNW,336,0.0,0.0,84,0.00,,,0.01,0,Wunderground v.1.15,2013-02-14 01:58:00,
2013-02-13 20:04:00,43.6,39.1,30.03,NNW,337,0.0,0.0,84,0.00,,,0.01,0,Wunderground v.1.15,2013-02-14 02:04:00,
2013-02-13 20:09:00,43.4,38.9,30.03,NNW,337,0.0,0.0,84,0.00,,,0.01,0,Wunderground v.1.15,2013-02-14 02:09:00,
2013-02-13 20:14:00,43.3,38.8,30.03,NNW,337,0.0,0.0,84,0.00,,,0.01,0,Wunderground v.1.15,2013-02-14 02:14:00,
2013-02-13 20:19:00,43.1,38.9,30.03,NNW,337,0.0,0.0,85,0.00,,,0.01,0,Wunderground v.1.15,2013-02-14 02:19:00,
2013-02-13 20:25:00,42.9,38.7,30.03,NNW,337,0.0,0.0,85,0.00,,,0.01,0,Wunderground v.1.15,2013-02-14 02:25:00,
2013-02-13 20:30:00,42.8,38.6,30.03,NNW,337,0.0,0.0,85,0.00,,,0.01,0,Wunderground v.1.15,2013-02-14 02:30:00,
2013-02-13 20:36:00,42.6,38.4,30.03,NNW,336,0.0,0.0,85,0.00,,,0.01,0,Wunderground v.1.15,2013-02-14 02:36:00,
2013-02-13 20:41:00,42.5,38.3,30.03,NNW,336,0.0,0.0,85,0.00,,,0.01,0,Wunderground v.1.15,2013-02-14 02:41:00,
2013-02-13 20:47:00,42.4,38.5,30.04,NNW,336,0.0,0.0,86,0.00,,,0.01,0,Wunderground v.1.15,2013-02-14 02:47:00,
2013-02-13 20:52:00,42.2,38.3,30.04,NNW,336,0.0,0.0,86,0.00,,,0.01,0,Wunderground v.1.15,2013-02-14 02:52:00,
2013-02-13 20:57:00,42.1,38.2,30.04,NNW,336,0.0,0.0,86,0.00,,,0.01,0,Wunderground v.1.15,2013-02-14 02:57:00,
2013-02-13 21:02:00,42.0,38.1,30.04,NNW,336,0.0,0.0,86,0.00,,,0.01,0,Wunderground v.1.15,2013-02-14 03:02:00,
2013-02-13 21:07:00,41.9,38.0,30.05,NNW,336,0.0,0.0,86,0.00,,,0.01,0,Wunderground v.1.15,2013-02-14 03:07:00,
2013-02-13 21:13:00,41.8,37.9,30.05,NNW,336,0.0,0.0,86,0.00,,,0.01,0,Wunderground v.1.15,2013-02-14 03:13:00,
2013-02-13 21:18:00,41.7,38.1,30.05,NNW,336,0.0,0.0,87,0.00,,,0.01,0,Wunderground v.1.15,2013-02-14 03:18:00,
2013-02-13 21:23:00,41.6,38.0,30.05,NNW,336,0.0,0.0,87,0.00,,,0.01,0,Wunderground v.1.15,2013-02-14 03:23:00,
2013-02-13 21:29:00,41.4,37.8,30.05,NNW,336,0.0,0.0,87,0.00,,,0.01,0,Wunderground v.1.15,2013-02-14 03:29:00,
2013-02-13 21:34:00,41.3,37.7,30.05,NNW,336,0.0,0.0,87,0.00,,,0.01,0,Wunderground v.1.15,2013-02-14 03:34:00,
2013-02-13 21:39:00,41.1,37.8,30.05,NNW,336,0.0,0.0,88,0.00,,,0.01,0,Wunderground v.1.15,2013-02-14 03:39:00,
2013-02-13 21:44:00,41.0,37.7,30.06,NNW,336,0.0,0.0,88,0.00,,,0.01,0,Wunderground v.1.15,2013-02-14 03:44:00,
2013-02-13 21:50:00,40.8,37.5,30.06,NNW,336,0.0,0.0,88,0.00,,,0.01,0,Wunderground v.1.15,2013-02-14 03:50:00,
2013-02-13 21:55:00,40.5,37.2,30.06,NNW,336,0.0,0.0,88,0.00,,,0.01,0,Wunderground v.1.15,2013-02-14 03:55:00,
2013-02-13 22:00:00,40.3,37.3,30.06,NNW,336,0.0,0.0,89,0.00,,,0.01,0,Wunderground v.1.15,2013-02-14 04:00:00,
2013-02-13 22:06:00,40.1,37.4,30.06,NNW,336,0.0,0.0,90,0.00,,,0.01,0,Wunderground v.1.15,2013-02-14 04:06:00,
2013-02-13 22:11:00,39.8,37.1,30.06,NNW,336,0.0,0.0,90,0.00,,,0.01,0,Wunderground v.1.15,2013-02-14 04:11:00,
2013-02-13 22:16:00,39.6,37.2,30.06,NNW,336,0.0,0.0,91,0.00,,,0.01,0,Wunderground v.1.15,2013-02-14 04:16:00,
2013-02-13 22:22:00,39.3,37.2,30.06,NNW,336,0.0,0.0,92,0.00,,,0.01,0,Wunderground v.1.15,2013-02-14 04:22:00,
2013-02-13 22:27:00,39.1,36.7,30.06,NNW,336,0.0,0.0,91,0.00,,,0.01,0,Wunderground v.1.15,2013-02-14 04:27:00,
2013-02-13 22:32:00,38.9,36.8,30.06,NNW,336,0.0,0.0,92,0.00,,,0.01,0,Wunderground v.1.15,2013-02-14 04:32:00,
2013-02-13 22:38:00,38.8,36.7,30.06,NNW,336,0.0,0.0,92,0.00,,,0.01,0,Wunderground v.1.15,2013-02-14 04:38:00,
2013-02-13 22:43:00,38.8,36.9,30.06,NNW,336,0.0,0.0,93,0.00,,,0.01,0,Wunderground v.1.15,2013-02-14 04:43:00,
2013-02-13 22:48:00,38.8,36.9,30.06,NNW,336,0.0,0.0,93,0.00,,,0.01,0,Wunderground v.1.15,2013-02-14 04:48:00,
2013-02-13 22:53:00,38.7,36.9,30.06,NNW,336,0.0,0.0,93,0.00,,,0.01,0,Wunderground v.1.15,2013-02-14 04:53:00,
2013-02-13 22:58:00,38.6,36.8,30.06,NNW,336,0.0,0.0,93,0.00,,,0.01,0,Wunderground v.1.15,2013-02-14 04:58:00,
2013-02-13 23:00:00,38.6,36.8,30.06,NNW,336,0.0,0.0,93,0.00,,,0.01,0,Wunderground v.1.15,2013-02-14 05:00:00,
2013-02-13 23:01:00,38.6,36.8,30.06,NNW,336,0.0,0.0,93,0.00,,,0.01,0,Wunderground v.1.15,2013-02-14 05:01:00,
2013-02-13 23:04:00,38.4,36.6,30.06,NNW,336,0.0,0.0,93,0.00,,,0.01,0,Wunderground v.1.15,2013-02-14 05:04:00,
2013-02-13 23:07:00,38.3,36.5,30.06,NNW,336,0.0,0.0,93,0.00,,,0.01,0,Wunderground v.1.15,2013-02-14 05:07:00,
2013-02-13 23:13:00,38.2,36.6,30.06,NNW,336,0.0,0.0,94,0.00,,,0.01,0,Wunderground v.1.15,2013-02-14 05:13:00,
2013-02-13 23:18:00,38.2,36.6,30.06,NNW,336,0.0,0.0,94,0.00,,,0.01,0,Wunderground v.1.15,2013-02-14 05:18:00,
2013-02-13 23:23:00,38.3,36.7,30.06,NNW,336,0.0,0.0,94,0.00,,,0.01,0,Wunderground v.1.15,2013-02-14 05:23:00,
2013-02-13 23:28:00,38.4,36.8,30.05,NNW,336,0.0,0.0,94,0.00,,,0.01,0,Wunderground v.1.15,2013-02-14 05:28:00,
2013-02-13 23:33:00,38.4,36.6,30.05,NNW,336,0.0,0.0,93,0.00,,,0.01,0,Wunderground v.1.15,2013-02-14 05:33:00,
2013-02-13 23:39:00,38.4,36.6,30.05,NNW,336,0.0,0.0,93,0.00,,,0.01,0,Wunderground v.1.15,2013-02-14 05:39:00,
2013-02-13 23:45:00,38.4,36.6,30.05,NNW,336,0.0,0.0,93,0.00,,,0.01,0,Wunderground v.1.15,2013-02-14 05:45:00,
2013-02-13 23:51:00,38.6,36.8,30.04,NNW,336,0.0,0.0,93,0.00,,,0.01,0,Wunderground v.1.15,2013-02-14 05:51:00,
2013-02-13 23:56:00,38.8,36.9,30.04,NNW,336,0.0,0.0,93,0.00,,,0.01,0,Wunderground v.1.15,2013-02-14 05:56:00,